FREGAT R/B, 44116

Orbit data source: Space-Track

FREGAT R/B, 44116 is space debris originally from a launch on Thu, 04 Apr 2019 UTC launched from the French Guiana (FRGUI). Debris objects in space refer to the collection of defunct objects orbiting the Earth. Examples of debris include non-operational satellites, rocket bodies, and fragments generated from explosions, collisions, or faulty payload assembly.

Loading next visibility...
Identifier
44116, 2019-020E
Orbit
Active
Country
Flag of CISCIS
Related business
Manufacturer
Lavochkin
Mission
Spacecraft
Bus & Motor
FREGAT, Unknown motor
Mass
1,050 kg wet, 1,050 kg dry
Launch date (UTC)
2019-04-04 (7 years ago)
Launch vehicle
Unknown
Launch site
French Guiana (FRGUI)
Object type
Payload
Rocket body
Debris
Shape & HBR
Irr, 1.6 m
Radar Cross Section
11.055 m², Large (>1 m²)

Expand to show TLE details & history
Last TLE update: 11 hours ago

TLE from 11 hours ago
0 FREGAT R/B
1 44116U 19020E   25343.42441705 -.00000019  00000-0  00000-0 0  9993
2 44116   0.0639 290.8297 0007801  55.1651  13.9843  5.21008076126615
Epoch: 2025-12-09T10:11Z
TLE epoch observation values (Epoch: 2025-12-09T10:11:09.633Z)
Latitude
0.06113°
Longitude
128.80052°
Altitude
7,664.925 km
Speed
5.331 km/s
True Right ascension
23h 59m 59s
True Declination
0° 03' 39"
Sunlit
Object was in daylight at epoch
Visualization orbit readout
Latitude
Unknown
Longitude
Unknown
Altitude
Unknown
Speed
Unknown
Apparent Right ascension
Unknown
Apparent Declination
Unknown
Sunlit
N/A
Visualization observer readout
Local Sidereal Time
19:41:19
Azimuth
Unknown
Elevation
Unknown
Doppler factor
Unknown
Orbital elements
Apogee altitude
7,691.232 km
Perigee altitude
7,669.298 km
Semi-major axis
14,058.402 km
Eccentricity
0.00078
Inclination
0.0639°
RAAN
290.8297°
Arg. of periapsis
55.1651°
True anomaly
14.00592°
Mean anomaly
13.9843°
Eccentric anomaly
13.99511°
Mean motion
1.30208 °/min
Orbital period
276.48 mins
BSTAR
0
Loading maneuver chart data...
Computing Atmospheric mass density...
Loading historical data...
Loading historical data...
Loading historical data...
Loading historical data...
Loading historical data...
Loading historical data...
Loading historical data...
Other satellites on launch #20 in the year 2019 (2019-04-04 UTC)

Documentation

Showing up to 5 results
|